Location: Gu�tanj
(46.5431°N, 14.9692°E)
Time: 18:35:40
(UTC+00:00)

Cosmos 2219 Rocket - Pass Details

Date: 03 March 2021
Orbit: 826 x 848 km, 71.0° (Epoch: 14 April)

Event Time Altitude Azimuth Distance (km) Brightness Sun altitude
Rises 19:24:01 0° 210° (SSW) 3,354 5.4 -27.0°
Reaches altitude 10° 19:26:26 10° 212° (SSW) 2,426 4.7 -27.4°
Maximum altitude 19:32:00 75° 298° (WNW) 864 2.2 -28.3°
Drops below altitude 10° 19:37:38 10° 24° (NNE) 2,453 4.6 -29.2°
Sets 19:40:05 0° 26° (NNE) 3,394 5.3 -29.6°
